TRISAT (46280 NORAD) Tracking and Keplerian Element Data

This shows tracking and keplerian element data for the satellite.

Feedback or suggestion? Click here.




ElementValue
Catalog46280
NameTRISAT
Epoch Orbit1383
Epoch Day338.93526251
Epoch Year2020
RAAN50.2786
Inclination97.5101
Eccentricity0.0004983
Argument of Perigee48.0488
Mean Anonmoly312.1165
Mean Motion15.09904227
Decay Rate1.366E-05
L11 46280U 20061J 20338.93526251 .00001366 00000-0 88140-4 0 9999
L22 46280 97.5101 50.2786 0004983 48.0488 312.1165 15.09904227 13832

Live tracking and technical data element details for TRISAT (NORAD 46280). TRISAT can be tracked NOW for your location showing map with azimuth and elevation plus other details from your city location.

Track the satellite on the map from your city or location and see movement details for azimuth, elevation, latitude, longitude, range, height, and movement on the map or in text.







IsCatalogInMostPopularTable: catalog: 46280, numindb: 32
Update: records affected: 1



GetName: 46280 TRISAT

Hit Count: updated at: Sat, 05 Dec 2020 05:31:21 GMT